Weather History for Prairie Du Chien, WI

Change the Weather History Date:

Friday, November 4, 2011

  Actual Average Record
Temperature  
Mean Temperature 38 °F -  
Max Temperature 54 °F 50 °F 75 °F (2008)
Min Temperature 25 °F 32 °F 5 °F (1991)
Degree Days  
Heating Degree Days 26    
Moisture  
Dew Point 30 °F    
Average Humidity 79    
Maximum Humidity 98    
Minimum Humidity 48    
Precipitation  
Precipitation 0.00 in - - ()
Sea Level Pressure  
Sea Level Pressure 30.27 in    
Wind  
Wind Speed 1 mph (ESE)    
Max Wind Speed 9 mph    
Max Gust Speed -    
Visibility 8 miles    
Events Fog    
Averages and records for this station are not official NWS values.
T = Trace of Precipitation, MM = Missing Value Source: NWS Daily Summary

Daily Weather History Graph

Daily Weather History Graph

Search for Another Location

Airport:

Trip Planner

Search our weather history database for the weather conditions in past years. The results will help you decide how hot, cold, wet, or windy it might be!

Date:

Astronomy

Nov. 04, 2011 Rise Set
Actual Time 7:42 AM CDT 5:52 PM CDT
Civil Twilight 7:12 AM CDT 6:22 PM CDT
Nautical Twilight 6:39 AM CDT 6:56 PM CDT
Astronomical Twilight 6:05 AM CDT 7:29 PM CDT
Moon 2:52 PM CDT (11/4) 1:46 AM CDT (11/4)
Length of Visible Light 11h 09m
Length of Day
10h 10m
Waxing Gibbous, 69% of the Moon is Illuminated
Nov 4
Waxing Gibbous
Nov 10
Full
Nov 18
Last Quarter
Nov 25
New
Dec 2
First Quarter

Hourly Weather History & Observations

Time (CDT) Temp. Windchill Dew Point Humidity Pressure Visibility Wind Dir Wind Speed Gust Speed Precip Events Conditions
12:15 AM 29.5 °F - 27.3 °F 92% 30.27 in 10.0 mi Calm Calm - N/A   Clear
1:15 AM 28.4 °F - 26.6 °F 93% 30.27 in 10.0 mi Calm Calm - N/A   Clear
1:35 AM 28.6 °F - 26.8 °F 93% 30.27 in 10.0 mi Calm Calm - N/A   Clear
1:55 AM 27.9 °F - 26.4 °F 94% 30.27 in 10.0 mi Calm Calm - N/A   Clear
2:15 AM 27.7 °F - 26.1 °F 94% 30.28 in 10.0 mi Calm Calm - N/A   Clear
2:35 AM 27.1 °F - 25.7 °F 94% 30.28 in 10.0 mi Calm Calm - N/A   Clear
2:55 AM 27.5 °F - 26.2 °F 95% 30.28 in 10.0 mi Calm Calm - N/A   Clear
3:15 AM 27.5 °F - 26.1 °F 94% 30.28 in 10.0 mi Calm Calm - N/A   Clear
3:35 AM 27.0 °F - 25.3 °F 94% 30.27 in 10.0 mi Calm Calm - N/A   Clear
4:15 AM 26.2 °F - 24.6 °F 94% 30.27 in 10.0 mi Calm Calm - N/A   Clear
4:35 AM 26.4 °F - 25.2 °F 95% 30.28 in 10.0 mi Calm Calm - N/A   Clear
4:55 AM 25.7 °F - 24.4 °F 95% 30.28 in 10.0 mi Calm Calm - N/A   Mostly Cloudy
5:15 AM 25.7 °F - 24.3 °F 94% 30.29 in 10.0 mi Calm Calm - N/A   Overcast
5:35 AM 26.1 °F - 24.6 °F 94% 30.30 in 10.0 mi Calm Calm - N/A   Overcast
5:55 AM 25.9 °F - 24.4 °F 94% 30.30 in 10.0 mi Calm Calm - N/A   Overcast
6:15 AM 26.2 °F - 25.0 °F 95% 30.31 in 1.2 mi Calm Calm - N/A   Overcast
6:35 AM 26.8 °F - 26.1 °F 97% 30.31 in 0.2 mi Calm Calm - N/A Fog Light Freezing Fog
6:55 AM 27.1 °F - 26.6 °F 98% 30.32 in 0.2 mi Calm Calm - N/A Fog Light Freezing Fog
7:15 AM 27.5 °F - 26.8 °F 97% 30.32 in 0.2 mi Calm Calm - N/A Fog Light Freezing Fog
7:35 AM 27.7 °F - 27.1 °F 98% 30.33 in 0.2 mi Calm Calm - N/A   Overcast
7:55 AM 27.7 °F - 27.0 °F 97% 30.33 in 0.2 mi Calm Calm - N/A   Overcast
8:15 AM 27.3 °F - 26.6 °F 97% 30.34 in 0.2 mi Calm Calm - N/A Fog Light Freezing Fog
8:35 AM 27.1 °F - 26.2 °F 96% 30.34 in 0.2 mi Calm Calm - N/A Fog Light Freezing Fog
8:55 AM 27.0 °F - 26.1 °F 96% 30.34 in 0.2 mi Calm Calm - N/A Fog Light Freezing Fog
9:15 AM 26.8 °F - 25.9 °F 96% 30.35 in 0.5 mi Calm Calm - N/A Fog Light Freezing Fog
9:35 AM 27.5 °F - 26.6 °F 96% 30.36 in 0.5 mi Calm Calm - N/A Fog Light Freezing Fog
9:55 AM 28.4 °F - 27.5 °F 96% 30.36 in 0.2 mi Calm Calm - N/A Fog Light Freezing Fog
10:15 AM 29.1 °F - 28.2 °F 96% 30.36 in 0.2 mi Calm Calm - N/A Fog Light Freezing Fog
10:35 AM 29.8 °F - 28.9 °F 96% 30.35 in 0.2 mi Calm Calm - N/A Fog Light Freezing Fog
10:55 AM 30.7 °F - 30.2 °F 98% 30.35 in 1.0 mi Calm Calm - N/A   Overcast
11:15 AM 32.5 °F - 32.0 °F 98% 30.34 in 10.0 mi Calm Calm - N/A   Scattered Clouds
11:35 AM 35.8 °F - 34.9 °F 97% 30.34 in 10.0 mi Calm Calm - N/A   Clear
11:55 AM 37.4 °F - 36.0 °F 95% 30.34 in 10.0 mi Calm Calm - N/A   Clear
12:15 PM 39.0 °F - 36.7 °F 91% 30.33 in 10.0 mi Calm Calm - N/A   Clear
12:55 PM 45.1 °F 43.7 °F 36.9 °F 73% 30.32 in 10.0 mi SW 3.5 mph - N/A   Clear
1:15 PM 46.2 °F - 36.7 °F 69% 30.31 in 10.0 mi Calm Calm - N/A   Clear
1:35 PM 47.5 °F - 36.3 °F 65% 30.30 in 10.0 mi Calm Calm - N/A   Clear
2:35 PM 50.9 °F - 35.2 °F 55% 30.28 in 10.0 mi East 5.8 mph - N/A   Clear
2:55 PM 51.6 °F - 34.3 °F 52% 30.27 in 10.0 mi East 8.1 mph - N/A   Clear
3:15 PM 52.0 °F - 33.6 °F 50% 30.26 in 10.0 mi East 5.8 mph - N/A   Clear
3:35 PM 52.0 °F - 32.7 °F 48% 30.26 in 10.0 mi East 9.2 mph - N/A   Clear
3:55 PM 52.0 °F - 33.8 °F 50% 30.25 in 10.0 mi East 6.9 mph - N/A   Clear
4:35 PM 51.8 °F - 33.3 °F 49% 30.24 in 10.0 mi East 8.1 mph - N/A   Clear
4:55 PM 51.4 °F - 32.9 °F 49% 30.24 in 10.0 mi ESE 8.1 mph - N/A   Clear
5:15 PM 50.7 °F - 31.8 °F 48% 30.23 in 10.0 mi ESE 6.9 mph - N/A   Clear
5:35 PM 49.8 °F - 31.8 °F 50% 30.23 in 10.0 mi ESE 5.8 mph - N/A   Clear
5:55 PM 48.9 °F - 30.7 °F 50% 30.23 in 10.0 mi ESE 3.5 mph - N/A   Clear
6:15 PM 47.8 °F - 30.2 °F 50% 30.23 in 10.0 mi ESE 3.5 mph - N/A   Clear
6:35 PM 46.0 °F - 30.9 °F 56% 30.22 in 10.0 mi Calm Calm - N/A   Clear
6:55 PM 43.5 °F 40.9 °F 31.5 °F 63% 30.22 in 10.0 mi East 4.6 mph - N/A   Clear
7:15 PM 43.0 °F 40.3 °F 31.3 °F 63% 30.21 in 10.0 mi ESE 4.6 mph - N/A   Clear
7:35 PM 43.3 °F 40.7 °F 31.8 °F 64% 30.21 in 10.0 mi ESE 4.6 mph - N/A   Clear
8:15 PM 43.5 °F 39.4 °F 31.8 °F 63% 30.21 in 10.0 mi ESE 6.9 mph - N/A   Clear
8:35 PM 43.0 °F 37.7 °F 32.0 °F 65% 30.19 in 10.0 mi ESE 9.2 mph - N/A   Clear
8:55 PM 42.8 °F 38.0 °F 32.0 °F 66% 30.19 in 10.0 mi ESE 8.1 mph - N/A   Clear
9:15 PM 42.6 °F 39.0 °F 32.0 °F 66% 30.19 in 10.0 mi ESE 5.8 mph - N/A   Clear
9:35 PM 42.4 °F 39.6 °F 32.2 °F 67% 30.19 in 10.0 mi ESE 4.6 mph - N/A   Clear
9:55 PM 41.9 °F 37.5 °F 32.2 °F 68% 30.19 in 10.0 mi ESE 6.9 mph - N/A   Clear
10:15 PM 41.0 °F 36.4 °F 32.4 °F 71% 30.18 in 10.0 mi East 6.9 mph - N/A   Clear
10:35 PM 40.6 °F 37.5 °F 32.5 °F 73% 30.19 in 10.0 mi ESE 4.6 mph - N/A   Clear
10:55 PM 39.9 °F 35.8 °F 32.4 °F 74% 30.18 in 10.0 mi East 5.8 mph - N/A   Clear
11:15 PM 39.9 °F 35.8 °F 32.4 °F 74% 30.18 in 10.0 mi East 5.8 mph - N/A   Clear
11:55 PM 38.5 °F 34.1 °F 32.0 °F 78% 30.18 in 10.0 mi East 5.8 mph - N/A   Clear